Location: *
(40.9667°S, 165.4000°W)
Time: 16:43:40
(UTC+00:00)

Daily predictions for brighter satellites

Satellite Brightness Start Highest point End
(mag) Time Altitude Azimuth Time Altitude Azimuth Time Altitude Azimuth
ATLAS 2AS CENTAUR R/B 4.1 14:13:31 36° ESE 14:13:31 36° ESE 14:19:30 10° ENE
SL-16 R/B 4.4 14:12:34 10° SE 14:17:37 25° E 14:19:48 21° NE
Cosmos 2219 Rocket 4.2 14:28:11 24° ESE 14:28:11 24° ESE 14:31:06 10° SE
Cosmos 2322 Rocket 4.3 14:50:54 19° SSE 14:50:54 19° SSE 14:52:21 10° SSE
CZ-3 R/B 4.4 14:46:28 44° NW 14:49:42 45° NW 15:01:36 10° NE
CZ-3 Stage 3 3.8 15:01:06 44° N 15:02:14 46° N 15:22:49 10° ENE
Cosmos 2360 Rocket 3.7 15:14:05 26° SSE 15:14:05 26° SSE 15:16:33 10° SSE
Nadezhda 4 Rocket 4.3 15:13:16 59° NNE 15:13:16 59° NNE 15:18:13 10° N
USA 215 4.2 15:07:14 10° NNE 15:11:10 35° N 15:11:10 35° N
Cosmos 2034 Rocket 4.0 15:18:34 43° N 15:20:48 81° E 15:27:11 10° S
Centaur D AC-29 3.8 15:22:06 31° NNW 15:25:06 38° N 16:01:29 10° ENE
Centaur D AC-29 3.8 15:22:06 31° NNW 15:25:07 38° N 16:01:29 10° ENE
Centaur D AC-29 3.8 15:22:05 31° NNW 15:25:07 38° N 16:01:29 10° ENE
Cosmos 2333 Rocket 3.8 15:28:47 23° S 15:28:47 23° S 15:31:03 10° SSE
Meteor 1-21 Rocket 4.1 15:29:10 83° SE 15:29:16 84° E 15:34:53 10° N
Lacrosse 5 rocket 3.3 15:36:02 20° SE 15:36:02 20° SE 15:37:17 10° SE
Cosmos 1331 Rocket 3.9 15:36:23 83° ENE 15:36:25 83° ENE 15:41:40 10° SSE
Cosmos 2322 4.3 15:35:38 10° N 15:41:12 56° ENE 15:46:51 10° SSE
UNK 3.9 15:36:58 10° SSE 15:41:40 72° ENE 15:46:17 10° N
Thor Agena Rocket 4.3 15:38:03 10° N 15:41:30 40° NNW 15:41:30 40° NNW
Cosmos 371 Rocket 4.0 15:42:31 29° S 15:44:44 52° ESE 15:49:25 10° NE
CBERS-1 4.2 15:39:47 10° N 15:43:55 56° NNW 15:43:55 56° NNW
Cosmos 968 Rocket 3.6 15:43:58 37° S 15:46:00 70° ESE 15:51:05 10° NNE
Cosmos 2221 Rocket 3.6 15:46:58 84° ESE 15:47:01 85° E 15:51:35 10° N
Cosmos 2026 Rocket 3.9 15:44:58 10° S 15:51:12 87° E 15:57:26 10° N
In-Cosmos 22 Rocket 4.0 15:51:30 63° WSW 15:51:47 64° W 15:57:07 10° N
Cosmos 1908 Rocket 3.5 15:56:52 67° SSW 15:56:52 67° SSW 16:00:47 10° S
ACS3 Solar Sail 2.0 15:52:45 10° NNE 15:58:59 75° ESE 16:05:22 10° S
USA 81 4.1 16:00:09 52° WNW 16:00:09 52° WNW 16:04:53 10° NNW
SL-16 R/B 2.6 15:55:22 10° S 16:01:28 53° WSW 16:04:52 26° NW
SMAP 4.1 15:58:35 10° NE 16:03:03 45° ESE 16:07:34 10° S
USA 305 3.7 16:03:03 34° S 16:03:47 37° SSE 16:07:23 10° E
ATLAS 2AS CENTAUR R/B 2.9 16:01:00 36° WSW 16:03:58 57° WNW 16:11:13 10° NNE
SJ 16-02 2.4 16:08:05 29° NNW 16:08:05 29° NNW 16:10:29 10° N
Meteor 1-11 4.1 16:00:45 10° SSW 16:06:30 82° W 16:12:05 10° N
SL-4 R/B 1.9 16:09:12 67° WSW 16:09:44 84° NW 16:13:50 10° NE
Cosmos 2219 Rocket 2.5 16:09:57 40° WSW 16:10:04 40° WSW 16:15:24 10° S
IRS-1C 4.1 16:05:47 10° NNE 16:11:08 88° E 16:16:34 10° SSW
CENTAUR R/B 3.3 16:08:10 10° NNW 16:16:52 73° ENE 16:24:02 10° SE
Cosmos 304 Rocket 3.6 16:15:01 24° SSW 16:17:58 78° WNW 16:22:43 10° NNE
Cosmos 1850 Rocket 4.0 16:15:23 24° SSW 16:18:33 62° WNW 16:23:48 10° N
SL-16 R/B 4.3 16:20:37 10° SSW 16:20:37 10° SSW 16:20:41 10° SSW
COSMOS 2428 2.6 16:13:45 10° NNW 16:19:28 86° WSW 16:25:16 10° SSE
CORIOLIS 4.3 16:15:49 10° NNE 16:21:12 74° ESE 16:26:37 10° S
Cosmos 1634 Rocket 4.0 16:18:00 10° NNW 16:24:12 62° W 16:30:28 10° S
Cosmos 1092 Rocket 4.0 16:18:32 10° SSW 16:24:40 56° W 16:30:40 10° NNW
Cosmos 2278 Rocket 3.4 16:19:23 10° S 16:24:48 41° ESE 16:30:08 10° NE
IRAS Rocket 4.4 16:21:09 10° N 16:26:29 47° W 16:31:51 10° SSW
Cosmos 1975 Rocket 3.6 16:23:11 10° S 16:27:31 60° E 16:31:47 10° NNE
Atlas Centaur 2 4.0 16:24:47 10° NW 16:28:33 19° N 16:31:51 10° NE
Cosmos 2279 Rocket 3.9 16:24:57 10° N 16:31:10 80° W 16:37:29 10° S
Cosmos 2322 Rocket 4.0 16:32:43 14° SSW 16:32:43 14° SSW 16:34:42 10° SSW
Cosmos 1452 Rocket 4.1 16:34:28 22° WNW 16:36:58 33° WSW 16:41:47 10° S
ARIANE 5 R/B 2.6 16:34:04 10° N 16:38:56 51° W 16:43:52 10° SSW
Cosmos 1980 4.2 16:37:02 10° N 16:42:37 64° ENE 16:48:15 10° SSE
CZ-2D R/B 3.4 16:39:54 10° N 16:43:05 39° W 16:44:46 23° SW
BREEZE-M DEB (TANK) 4.3 16:37:33 19° WSW 16:45:06 40° SSW 16:48:46 10° ESE
Cosmos 1025 Rocket 4.1 16:47:17 21° WSW 16:48:37 25° W 16:52:10 10° NW
Cosmos 1782 Rocket 4.0 16:46:16 10° NNW 16:50:25 40° WSW 16:54:41 10° S
SJ-12 4.4 16:49:51 10° NNW 16:53:26 34° W 16:57:04 10° SSW
Cosmos 332 Rocket 4.0 16:48:40 10° SSW 16:53:32 74° ESE 16:58:21 10° NNE
Cosmos 1666 4.3 16:51:28 10° SSE 16:53:36 22° ESE 16:55:43 10° NE
Cosmos 1606 2.2 16:52:38 10° N 16:55:45 82° E 16:58:57 10° S
Cosmos 2360 Rocket 4.0 16:55:52 12° SW 16:55:57 12° SW 16:58:03 10° SSW
Spot 4 Rocket 4.1 16:53:46 10° NNE 16:58:54 84° ESE 17:04:06 10° SSW
IGS 5A 3.6 16:55:17 10° N 16:59:12 49° W 17:03:10 10° SSW
BREEZE-M DEB (TANK) 3.1 16:58:39 20° SW 16:59:13 22° SSW 17:01:01 10° SE
BlueWalker 3 1.8 16:55:56 10° NW 16:59:40 87° NE 17:03:26 10° SE
SL-08 ROCKET BODY 4.3 16:54:15 10° S 17:00:10 77° W 17:06:03 10° N
NOSS 0 Rocket 3.9 16:59:45 10° NW 17:05:53 63° WSW 17:12:03 10° SSE
CZ-2D R/B 3.4 17:02:36 10° N 17:06:24 55° W 17:10:19 10° SSW
Timation 2 Rocket 4.5 16:59:57 10° SW 17:06:30 47° WNW 17:12:48 10° N
Lacrosse 5 rocket 2.9 17:10:04 12° SW 17:11:35 15° SSW 17:13:51 10° SSE
YAOGAN 1 3.7 17:11:12 10° NE 17:15:18 45° ESE 17:19:28 10° S
Orbus 7S? 3.8 17:11:35 10° SW 17:16:17 49° SE 17:19:04 10° ENE
Cosmos 2266 Rocket 4.0 17:12:07 10° S 17:18:29 73° W 17:24:39 10° N
SL-19 R/B 4.1 17:17:12 10° N 17:20:24 54° WNW 17:23:57 10° SSW
Cosmos 2237 Rocket 2.2 17:14:48 10° NNW 17:20:29 68° WSW 17:26:14 10° SSE
Cosmos 1943 Rocket 2.2 17:15:56 10° SSW 17:21:40 83° WNW 17:27:17 10° NNE
Meteor 1-31 Rocket 4.3 17:22:13 10° NE 17:25:35 36° ESE 17:28:58 10° S
Cosmos 2369 Rocket 4.5 17:24:10 10° S 17:28:07 19° SE 17:32:03 10° E
USA 307 4.5 17:27:42 10° SSW 17:30:03 19° SSE 17:32:43 10° ESE
USA 305 3.4 17:29:04 10° WSW 17:32:46 35° NW 17:36:02 10° NNE
ATLAS 5 CENTAUR R/B 3.9 17:28:38 10° SSW 17:33:16 23° SE 17:37:13 10° E
SPOT 1/Viking Rocket 4.0 17:32:02 10° NNE 17:37:10 69° ESE 17:42:24 10° S
